Probability
7 4 2 1 3 4 3 3 3 3 2 1 0 1 3 4 7 11 10 8 9 15 24 34 43 39 26 15 9 7 6 5 3 1 0 0 0 0 1 1 0 0 0
12 9 5 3 3 3 2 1 1 1 1 0 0 1 3 3 5 8 10 9 9 14 23 32 36 35 26 16 10 8 8 7 5 2 0 0 0 0 1 2 1 1 0
20 15 9 5 4 4 1 0 0 0 0 0 1 1 2 3 3 4 7 8 9 15 21 25 27 27 24 18 13 11 10 8 6 4 2 1 1 0 1 2 3 2 2
23 18 11 7 6 5 2 0 0 0 0 0 0 0 0 1 2 2 3 4 8 13 17 17 18 21 22 21 19 17 15 12 8 6 5 4 3 2 2 3 5 5 4
20 16 11 8 6 4 1 0 0 0 0 0 0 0 0 0 0 0 0 1 4 8 10 11 13 18 22 23 23 24 22 17 14 11 9 7 6 4 3 4 6 8 9
13 11 8 6 3 2 0 0 0 0 0 0 0 0 0 0 0 0 0 1 3 4 4 5 9 15 18 18 22 24 22 18 17 18 16 12 9 6 5 5 7 10 13
7 7 5 2 1 0 0 0 0 0 0 0 0 0 0 0 0 0 0 0 1 1 1 1 4 7 10 11 15 17 16 15 17 21 21 17 13 10 7 7 7 9 12
4 4 3 1 0 0 0 0 0 0 0 0 0 0 0 0 0 0 0 0 0 0 0 0 1 2 4 8 10 12 12 12 15 20 21 17 14 12 11 11 10 8 7
3 3 2 1 0 0 0 0 0 0 0 0 0 0 0 0 0 0 0 0 0 0 0 0 1 2 4 6 7 8 9 8 10 16 19 17 14 13 13 13 11 7 5
2 3 3 2 1 0 0 0 0 0 0 0 0 0 0 0 0 0 0 0 0 0 0 0 1 2 4 6 6 6 5 4 6 11 16 17 16 14 12 10 10 10 9
3 4 5 4 2 0 0 0 0 0 0 0 0 0 0 0 0 0 0 0 0 0 0 0 0 1 2 5 5 4 3 3 4 7 10 12 12 12 10 7 9 14 17
2 3 4 5 4 2 0 0 0 0 0 0 0 0 0 0 0 0 0 0 0 0 0 0 0 0 1 2 3 3 3 2 2 4 4 4 5 7 6 6 9 15 16
1 1 2 4 4 3 1 0 0 0 0 0 0 0 0 0 0 0 0 0 0 0 0 0 0 0 0 0 1 2 2 1 0 1 1 1 1 1 2 3 6 9 9
0 0 1 1 1 1 0 0 0 0 0 0 0 0 0 0 0 0 0 0 0 0 0 0 0 0 0 0 0 1 1 0 0 0 0 0 0 0 0 1 2 3 4
0 0 0 0 0 0 0 0 0 0 0 0 0 0 0 0 0 0 0 0 0 0 0 0 0 0 0 0 0 0 0 0 0 0 0 0 0 0 0 0 1 1 1
0 0 0 1 0 0 0 0 0 0 0 0 0 0 0 0 0 0 0 0 0 0 0 0 0 0 0 0 0 0 0 0 0 0 0 0 0 0 0 0 0 0 0
0 0 0 0 0 0 0 0 0 0 0 0 0 0 0 0 0 0 0 0 0 0 0 0 0 0 0 0 0 0 0 0 0 0 0 0 0 0 0 0 0 0 0
0 0 0 0 0 0 0 0 0 0 0 0 0 0 0 0 0 0 0 0 0 0 0 0 0 0 0 0 0 0 0 0 0 0 0 0 0 0 0 0 0 0 0
0 0 0 0 0 0 0 0 0 0 0 0 0 0 0 0 0 0 0 0 0 0 0 0 0 0 0 0 0 0 0 0 0 0 0 0 0 0 0 0 0 0 0
0 0 0 0 0 0 0 0 0 0 0 0 0 0 0 0 0 0 0 0 0 0 0 0 0 0 0 0 0 0 0 0 0 0 0 0 0 0 0 0 0 0 0
0 0 0 0 0 0 0 0 0 0 0 0 0 0 0 0 0 0 0 0 0 0 0 0 0 0 0 0 0 0 0 0 0 0 0 0 0 0 0 0 0 0 0
0 0 0 0 0 0 0 0 0 0 0 0 0 0 0 0 0 0 0 0 0 0 0 0 0 0 0 0 0 0 0 0 0 0 0 0 0 0 0 0 0 0 0
0 0 0 0 0 0 0 0 0 0 0 0 0 0 0 0 0 0 0 0 0 0 0 0 0 0 0 0 0 0 0 0 0 0 0 0 0 0 0 0 0 0 0
0 0 0 0 0 0 0 0 0 0 0 0 0 0 0 0 0 0 0 0 0 0 0 0 0 0 0 0 0 0 0 0 0 0 0 0 0 0 0 0 0 0 0
0 0 0 0 0 0 0 0 0 0 0 0 0 0 0 0 0 0 0 0 0 0 0 0 0 0 0 0 0 0 0 0 0 0 0 0 0 0 0 0 0 0 0
0 0 0 0 0 0 0 0 0 0 0 0 0 0 0 0 0 0 0 0 0 0 0 0 0 0 0 0 0 0 0 0 0 0 0 0 0 0 0 0 0 0 0
Wind_Speed
4 3 2 2 2 2 3 3 4 5 6 6 7 8 8 8 8 7 6 13 14 13 14 16 18 18 17 17 17 18 18 18 17 17 18 19 19 19 19 19 18 17 16
4 3 2 2 2 2 2 3 4 4 4 4 5 7 7 6 7 7 6 8 12 12 14 16 18 18 18 17 18 18 18 18 17 17 18 19 19 19 19 19 19 18 18
5 4 2 1 1 1 1 1 2 1 2 3 4 5 5 5 6 6 6 5 6 11 14 16 17 18 18 19 19 18 18 17 17 17 18 18 18 18 19 19 19 19 18
5 4 2 1 1 0 0 0 1 1 2 2 3 3 4 4 5 6 5 5 5 6 10 17 19 19 19 19 19 19 18 17 18 18 18 18 19 19 19 19 20 19 19
5 4 2 2 1 1 1 1 0 1 2 2 3 4 4 4 5 6 6 7 6 6 6 11 18 19 19 19 18 18 18 18 17 18 19 19 19 19 19 19 20 20 20
5 4 3 2 2 2 1 1 1 1 1 2 3 4 4 5 4 5 6 6 6 7 7 8 8 11 17 18 18 18 18 18 17 18 19 19 19 19 18 19 20 20 20
4 4 3 3 3 2 1 0 0 1 1 1 2 3 4 4 4 4 4 4 5 6 6 7 6 6 6 14 16 17 18 18 18 17 18 19 19 18 18 19 20 20 21
5 4 4 3 3 2 1 1 1 0 1 1 1 1 4 5 3 3 2 2 3 3 5 7 7 7 7 5 7 13 15 16 18 18 17 17 17 17 18 19 19 20 20
5 5 6 5 4 3 2 1 1 2 1 1 0 1 0 2 4 4 3 2 2 3 4 4 6 7 8 6 5 9 13 12 14 16 15 14 14 15 16 17 18 19 20
4 5 6 5 5 3 3 2 2 2 2 1 1 1 2 3 2 4 4 3 3 4 4 4 4 5 6 5 7 10 12 12 12 13 13 13 12 13 14 15 17 19 19
2 3 4 5 5 4 4 4 3 2 2 2 2 2 2 2 3 3 4 4 4 3 3 4 3 3 4 4 4 7 11 10 9 9 9 9 9 10 12 14 16 17 18
2 2 2 3 4 3 4 4 4 4 3 3 3 3 3 3 3 3 4 4 4 4 4 3 3 3 2 3 5 7 7 7 6 6 5 5 6 6 8 9 12 15 16
2 3 2 2 3 3 4 4 4 4 4 4 4 4 4 4 4 3 4 4 3 3 3 2 2 2 1 2 3 7 6 6 6 5 5 4 3 3 3 5 7 9 12
2 3 3 2 3 4 4 4 4 5 4 5 6 5 4 4 4 4 4 3 3 2 2 3 2 1 1 2 4 6 5 7 7 6 6 6 5 3 2 0 2 4 6
3 4 4 4 4 4 5 4 4 5 5 5 5 5 4 4 4 4 4 4 3 3 3 3 1 0 2 3 4 4 5 8 9 9 8 8 7 6 5 4 3 2 1
4 5 5 5 5 5 5 5 4 5 6 5 5 5 5 4 4 4 4 4 5 4 4 2 1 1 3 4 6 5 7 11 10 10 10 9 9 8 8 8 7 6 6
4 4 5 5 5 6 6 5 6 6 6 6 6 6 6 5 4 4 4 4 4 4 5 3 1 2 4 6 6 6 6 5 6 11 11 11 10 10 10 10 10 10 10
6 5 5 5 6 6 5 6 7 6 6 7 7 6 6 5 5 4 4 4 4 5 4 4 3 3 4 7 7 7 6 6 6 10 12 12 12 12 12 12 13 13 13
7 6 6 6 6 6 6 6 6 7 7 7 7 7 7 6 6 4 4 4 4 4 4 4 4 3 4 6 8 7 7 6 7 9 11 12 12 13 13 13 13 13 13
7 8 7 7 7 6 6 6 6 6 6 6 6 6 7 7 7 6 5 5 4 4 4 5 5 5 5 7 7 8 6 4 5 6 7 8 11 13 12 12 13 13 13
9 8 7 7 7 6 6 6 5 6 6 6 6 6 7 8 10 7 5 5 4 4 5 6 6 5 6 8 7 6 8 7 5 3 5 4 5 5 6 9 11 13 12
9 8 8 8 7 7 8 9 7 6 6 6 6 6 6 7 9 9 9 8 8 7 7 6 6 8 8 8 7 9 9 8 5 2 4 4 3 4 4 4 7 10 10
8 8 8 8 8 9 12 12 12 7 6 6 6 6 5 5 7 5 5 5 5 8 9 8 9 9 10 10 11 10 8 6 5 6 5 4 3 4 3 4 7 8 9
7 7 7 8 8 10 13 12 12 7 6 7 7 7 6 5 6 6 4 3 2 3 5 6 7 7 9 9 10 10 10 7 7 4 3 4 2 3 3 4 6 8 8
7 7 6 8 8 9 12 12 10 5 5 7 6 6 6 6 8 9 6 5 4 2 3 8 10 11 13 14 12 10 9 10 8 4 2 4 3 3 3 3 4 7 8
7 7 7 7 8 8 11 12 10 4 5 5 4 5 8 7 8 9 7 7 7 5 7 9 10 11 11 12 13 10 10 10 9 5 3 4 4 4 3 2 2 2 4
Wind_Direction
209 209 211 211 209 206 213 223 226 232 232 234 234 235 237 235 232 228 237 244 243 244 247 240 231 225 222 221 221 220 220 222 220 217 214 213 211 209 208 208 207 205 204
189 186 189 189 201 203 209 216 226 230 235 235 237 237 236 235 233 229 229 242 246 238 229 230 235 231 227 226 227 226 223 224 223 220 219 217 215 212 211 210 209 208 206
173 168 162 175 218 216 217 237 262 253 251 246 247 246 241 232 233 232 229 227 233 230 226 225 228 233 234 231 230 230 228 225 223 222 221 220 218 216 213 212 211 210 208
159 146 144 164 196 152 6 296 281 297 285 275 265 260 252 245 243 239 231 227 221 225 226 230 230 232 235 237 237 234 231 229 226 223 223 221 220 220 218 215 214 212 210
143 136 138 144 124 87 40 334 339 242 275 286 274 262 253 249 250 252 242 232 223 216 218 230 233 233 235 238 241 241 238 235 230 227 225 223 222 221 220 219 217 214 212
137 130 127 126 110 96 55 11 302 282 256 273 289 289 267 255 248 246 248 243 230 225 222 227 232 237 238 239 240 243 244 243 237 233 230 227 225 222 220 220 219 217 215
143 136 135 126 121 123 144 317 334 334 306 323 346 319 300 277 264 257 254 252 243 237 230 227 226 229 237 239 237 240 244 244 243 240 237 233 229 225 222 221 220 219 217
165 158 155 154 150 136 91 64 86 54 307 12 54 335 333 335 332 302 284 263 262 253 247 241 229 225 227 225 228 234 240 243 245 244 242 239 234 230 226 224 221 220 219
178 173 172 166 168 157 168 200 159 141 238 306 174 180 264 294 312 311 308 295 294 276 263 254 238 230 225 218 215 226 232 237 244 246 243 242 239 234 229 226 224 222 220
197 189 182 176 175 170 178 194 176 178 173 253 294 213 206 212 251 303 311 310 313 294 283 273 253 239 228 212 210 211 217 223 233 238 238 240 241 238 233 229 228 226 223
240 209 187 179 181 181 184 191 197 204 195 207 221 238 247 239 219 229 282 306 314 296 289 273 258 245 226 201 197 207 209 212 216 222 226 233 237 239 239 234 233 232 228
297 275 202 185 186 190 195 203 211 218 221 224 225 219 218 230 230 225 255 282 291 288 288 274 262 245 218 186 191 187 184 179 184 195 203 208 220 230 240 241 240 240 236
319 314 280 221 213 214 213 210 215 225 225 230 232 229 225 227 224 223 245 264 270 282 285 292 275 255 187 147 162 159 157 155 157 157 155 153 164 190 228 239 242 244 241
302 313 308 270 250 241 235 221 220 229 229 232 238 235 233 236 225 220 222 237 272 277 272 271 300 266 139 129 135 134 131 136 133 128 123 118 115 113 119 201 243 249 248
319 331 323 312 292 271 254 240 233 235 233 233 237 239 239 241 233 228 221 211 218 254 267 251 252 51 113 110 124 117 115 119 115 111 107 104 99 92 79 66 58 52 38
322 324 325 318 307 297 280 259 250 244 238 238 234 238 242 243 243 235 227 219 210 216 236 236 219 150 133 120 113 106 106 109 105 106 103 99 94 86 78 71 66 64 65
299 306 306 307 303 298 295 281 264 256 246 247 244 240 243 241 242 240 232 223 217 207 228 231 196 145 132 129 117 106 103 94 97 99 101 97 91 83 75 70 67 66 68
278 279 284 290 293 295 291 285 280 272 253 248 246 243 246 243 243 241 234 232 225 211 207 211 181 159 138 141 131 121 110 101 94 94 96 94 89 84 77 72 69 67 68
266 269 268 271 276 282 285 282 277 271 260 250 245 240 240 235 244 243 238 238 230 220 201 187 176 152 134 144 134 119 109 104 100 99 90 86 85 83 79 75 73 70 70
254 260 257 255 259 266 273 278 285 275 265 260 252 241 236 228 231 236 240 237 226 211 193 177 166 154 148 147 140 133 124 114 108 100 88 86 83 80 79 81 81 78 73
248 248 250 251 253 258 263 268 274 284 274 271 264 251 240 234 228 223 227 225 211 202 187 176 167 156 154 157 150 141 135 122 94 100 101 82 76 71 67 73 79 82 80
244 243 242 245 249 257 266 270 268 272 270 264 265 263 253 241 232 226 225 220 208 198 191 178 172 166 160 151 141 145 142 139 127 138 108 88 75 74 61 63 77 83 84
234 233 238 240 243 249 256 262 264 258 256 257 256 251 256 242 221 215 214 217 216 206 193 177 170 167 161 158 151 150 151 144 128 149 123 96 72 73 56 64 77 83 87
227 227 231 236 241 250 252 255 257 252 249 251 248 240 241 241 221 202 188 181 187 190 187 177 165 160 154 153 152 149 143 119 105 120 118 109 97 80 64 46 58 75 84
227 225 224 228 234 247 251 253 248 240 245 250 249 241 232 231 221 199 178 168 155 144 136 142 139 136 138 139 140 136 137 136 133 136 120 110 122 96 63 42 39 60 73
231 231 232 229 229 238 247 248 238 220 237 247 254 243 234 222 204 193 182 169 161 155 138 127 124 126 132 135 140 147 148 145 141 141 169 122 142 124 89 28 26 31 54